When you browse on this site, cookies collect data to enhance your experience and personalize the content and advertising you see.
Visit our Privacy Policy to learn more. By continuing to use the site, you agree to this use of cookies and data.

Hourly Weather Dammam

Today, 8 July, Wednesday

Time Temperature Precipitation Wind Pressure Humidity
00:00 +38°C° 0 mm 3 mps 745 mmHg 33%
01:00 +37°C° 0 mm 2 mps 745 mmHg 34%
02:00 +37°C° 0 mm 2 mps 745 mmHg 34%
03:00 +36°C° 0 mm 2 mps 745 mmHg 34%
04:00 +37°C° 0 mm 2 mps 745 mmHg 31%
05:00 +36°C° 0 mm 1 mps 746 mmHg 29%
06:00 +36°C° 0 mm 1 mps 746 mmHg 26%
07:00 +40°C° 0 mm 2 mps 746 mmHg 22%
08:00 +42°C° 0 mm 2 mps 746 mmHg 18%
09:00 +46°C° 0 mm 3 mps 747 mmHg 14%
10:00 +48°C° 0 mm 4 mps 746 mmHg 14%
11:00 +48°C° 0 mm 4 mps 746 mmHg 15%
12:00 +49°C° 0 mm 5 mps 746 mmHg 16%
13:00 +49°C° 0 mm 5 mps 746 mmHg 15%
14:00 +49°C° 0 mm 6 mps 746 mmHg 15%
15:00 +49°C° 0 mm 6 mps 745 mmHg 15%
16:00 +47°C° 0 mm 6 mps 745 mmHg 21%
17:00 +45°C° 0 mm 7 mps 745 mmHg 28%
18:00 +43°C° 0 mm 7 mps 745 mmHg 35%
19:00 +41°C° 0 mm 6 mps 745 mmHg 39%
20:00 +40°C° 0 mm 5 mps 746 mmHg 42%
21:00 +38°C° 0 mm 4 mps 746 mmHg 45%
22:00 +37°C° 0 mm 4 mps 746 mmHg 46%
23:00 +37°C° 0 mm 4 mps 746 mmHg 46%

Tomorrow, 9 July, Thursday

Time Temperature Precipitation Wind Pressure Humidity
00:00 +37°C° 0 mm 3 mps 746 mmHg 46%
01:00 +36°C° 0 mm 3 mps 746 mmHg 46%
02:00 +36°C° 0 mm 3 mps 745 mmHg 46%
03:00 +35°C° 0 mm 2 mps 745 mmHg 46%
04:00 +36°C° 0 mm 2 mps 746 mmHg 44%
05:00 +36°C° 0 mm 2 mps 746 mmHg 42%
06:00 +36°C° 0 mm 2 mps 746 mmHg 40%
07:00 +38°C° 0 mm 2 mps 747 mmHg 36%
08:00 +40°C° 0 mm 1 mps 747 mmHg 31%
09:00 +42°C° 0 mm 1 mps 747 mmHg 26%
10:00 +43°C° 0 mm 2 mps 747 mmHg 25%
11:00 +45°C° 0 mm 3 mps 747 mmHg 24%
12:00 +47°C° 0 mm 5 mps 746 mmHg 23%
13:00 +47°C° 0 mm 5 mps 746 mmHg 21%
14:00 +48°C° 0 mm 5 mps 746 mmHg 20%
15:00 +48°C° 0 mm 5 mps 746 mmHg 19%
16:00 +46°C° 0 mm 5 mps 745 mmHg 25%
17:00 +45°C° 0 mm 6 mps 745 mmHg 31%
18:00 +43°C° 0 mm 7 mps 745 mmHg 37%
19:00 +41°C° 0 mm 6 mps 745 mmHg 39%
20:00 +40°C° 0 mm 6 mps 745 mmHg 42%
21:00 +40°C° 0 mm 5 mps 746 mmHg 44%
22:00 +38°C° 0 mm 4 mps 745 mmHg 44%
23:00 +38°C° 0 mm 4 mps 745 mmHg 44%

Day after tomorrow, 10 July, Friday

Time Temperature Precipitation Wind Pressure Humidity
00:00 +37°C° 0 mm 3 mps 745 mmHg 44%
01:00 +37°C° 0 mm 3 mps 745 mmHg 42%
02:00 +37°C° 0 mm 3 mps 745 mmHg 39%
03:00 +37°C° 0 mm 3 mps 745 mmHg 36%
04:00 +37°C° 0 mm 2 mps 745 mmHg 35%
05:00 +37°C° 0 mm 2 mps 745 mmHg 34%
06:00 +36°C° 0 mm 1 mps 746 mmHg 33%
07:00 +39°C° 0 mm 1 mps 746 mmHg 27%
08:00 +42°C° 0 mm 1 mps 746 mmHg 22%
09:00 +44°C° 0 mm 1 mps 747 mmHg 17%
10:00 +46°C° 0 mm 2 mps 746 mmHg 17%
11:00 +46°C° 0 mm 3 mps 746 mmHg 18%
12:00 +48°C° 0 mm 4 mps 746 mmHg 18%
13:00 +48°C° 0 mm 5 mps 746 mmHg 19%
14:00 +48°C° 0 mm 6 mps 745 mmHg 19%
15:00 +48°C° 0 mm 6 mps 745 mmHg 20%
16:00 +46°C° 0 mm 5 mps 745 mmHg 22%
17:00 +44°C° 0 mm 4 mps 745 mmHg 24%
18:00 +43°C° 0 mm 3 mps 744 mmHg 26%
19:00 +42°C° 0 mm 3 mps 745 mmHg 27%
20:00 +40°C° 0 mm 2 mps 745 mmHg 27%
21:00 +39°C° 0 mm 2 mps 745 mmHg 27%
22:00 +39°C° 0 mm 3 mps 745 mmHg 27%
23:00 +39°C° 0 mm 3 mps 745 mmHg 28%

11 July, Saturday

Time Temperature Precipitation Wind Pressure Humidity
00:00 +38°C° 0 mm 4 mps 744 mmHg 28%
01:00 +38°C° 0 mm 3 mps 744 mmHg 27%
02:00 +37°C° 0 mm 3 mps 744 mmHg 27%
03:00 +37°C° 0 mm 2 mps 744 mmHg 27%
04:00 +37°C° 0 mm 3 mps 744 mmHg 26%
05:00 +38°C° 0 mm 3 mps 744 mmHg 24%
06:00 +38°C° 0 mm 4 mps 745 mmHg 23%
07:00 +40°C° 0 mm 3 mps 745 mmHg 20%
08:00 +43°C° 0 mm 3 mps 745 mmHg 17%
09:00 +45°C° 0 mm 2 mps 746 mmHg 14%
10:00 +47°C° 0 mm 2 mps 745 mmHg 14%
11:00 +48°C° 0 mm 2 mps 745 mmHg 13%
12:00 +49°C° 0 mm 2 mps 745 mmHg 13%
13:00 +48°C° 0 mm 3 mps 744 mmHg 14%
14:00 +49°C° 0 mm 4 mps 744 mmHg 14%
15:00 +49°C° 0 mm 5 mps 743 mmHg 15%
16:00 +47°C° 0 mm 4 mps 743 mmHg 18%
17:00 +45°C° 0 mm 3 mps 743 mmHg 20%
18:00 +42°C° 0 mm 2 mps 743 mmHg 23%
19:00 +41°C° 0 mm 2 mps 743 mmHg 24%
20:00 +40°C° 0 mm 2 mps 744 mmHg 25%
21:00 +39°C° 0 mm 2 mps 744 mmHg 26%
22:00 +38°C° 0 mm 3 mps 744 mmHg 30%
23:00 +38°C° 0 mm 3 mps 743 mmHg 35%

12 July, Sunday

Time Temperature Precipitation Wind Pressure Humidity
00:00 +37°C° 0 mm 3 mps 743 mmHg 39%
01:00 +37°C° 0 mm 3 mps 743 mmHg 40%
02:00 +37°C° 0 mm 3 mps 743 mmHg 40%
03:00 +36°C° 0 mm 2 mps 743 mmHg 41%
04:00 +36°C° 0 mm 2 mps 743 mmHg 37%
05:00 +37°C° 0 mm 2 mps 743 mmHg 34%
06:00 +37°C° 0 mm 3 mps 744 mmHg 30%
07:00 +39°C° 0 mm 3 mps 744 mmHg 25%
08:00 +43°C° 0 mm 3 mps 744 mmHg 20%
09:00 +45°C° 0 mm 3 mps 745 mmHg 15%
10:00 +46°C° 0 mm 3 mps 744 mmHg 15%
11:00 +48°C° 0 mm 3 mps 744 mmHg 14%
12:00 +50°C° 0 mm 4 mps 744 mmHg 14%
13:00 +49°C° 0 mm 4 mps 744 mmHg 16%
14:00 +49°C° 0 mm 4 mps 744 mmHg 18%
15:00 +48°C° 0 mm 5 mps 743 mmHg 20%
16:00 +47°C° 0 mm 4 mps 743 mmHg 23%
17:00 +44°C° 0 mm 3 mps 743 mmHg 26%
18:00 +43°C° 0 mm 3 mps 743 mmHg 29%
19:00 +40°C° 0 mm 2 mps 743 mmHg 32%
20:00 +39°C° 0 mm 1 mps 744 mmHg 34%
21:00 +37°C° 0 mm 1 mps 744 mmHg 36%
22:00 +37°C° 0 mm 1 mps 743 mmHg 32%
23:00 +39°C° 0 mm 2 mps 743 mmHg 29%

13 July, Monday

Time Temperature Precipitation Wind Pressure Humidity
00:00 +39°C° 0 mm 3 mps 743 mmHg 25%
01:00 +40°C° 0 mm 4 mps 743 mmHg 23%
02:00 +40°C° 0 mm 4 mps 743 mmHg 21%
03:00 +40°C° 0 mm 5 mps 743 mmHg 20%
04:00 +40°C° 0 mm 5 mps 743 mmHg 20%
05:00 +40°C° 0 mm 5 mps 743 mmHg 20%
06:00 +40°C° 0 mm 5 mps 743 mmHg 21%
07:00 +43°C° 0 mm 5 mps 744 mmHg 18%
08:00 +46°C° 0 mm 5 mps 744 mmHg 15%
09:00 +49°C° 0 mm 5 mps 744 mmHg 11%
10:00 +50°C° 0 mm 5 mps 744 mmHg 10%
11:00 +52°C° 0 mm 5 mps 744 mmHg 9%
12:00 +53°C° 0 mm 5 mps 744 mmHg 8%
13:00 +53°C° 0 mm 5 mps 743 mmHg 7%
14:00 +54°C° 0 mm 6 mps 743 mmHg 7%
15:00 +54°C° 0 mm 6 mps 743 mmHg 7%
16:00 +52°C° 0 mm 5 mps 742 mmHg 8%
17:00 +50°C° 0 mm 4 mps 742 mmHg 9%
18:00 +47°C° 0 mm 3 mps 742 mmHg 10%
19:00 +47°C° 0 mm 4 mps 742 mmHg 12%
20:00 +45°C° 0 mm 4 mps 743 mmHg 13%
21:00 +43°C° 0 mm 4 mps 743 mmHg 15%
22:00 +43°C° 0 mm 4 mps 743 mmHg 15%
23:00 +43°C° 0 mm 5 mps 743 mmHg 15%
Show more